www.pogodaiklimat.ru

Погода и климат >> Архив погоды >> Боливия >> Puerto Suarez


ПОГОДА в Puerto Suarez

  • Прогноз погоды в Puerto Suarez
  • Монитор погоды в Puerto Suarez
  • Климат города

АРХИВ ПОГОДЫ в Puerto Suarez

Время (UTC), дата Ветер
(напр.,м/с)
 
Видим.   Явления Облачность Т
(С)
Тd
(С)
f
(%)
Тe
(С)
Тes
(С)
Комфортность P
(гПа)
Po
(гПа)
Тmin
(С)
Tmax
(С)
R
(мм)
R24
(мм)
S
(см)
12 18.04 ЮЗ 3 8000 м дымка 9/9 300 м
[Sc]
+22.0 +20.5 91 +28 +28 душно 1013.0 997.8 +17.2
15 18.04 штиль 0 20 км 10/10 400 м
[Sc]
+26.0 +23.2 85 +35 +35 очень
душно
1013.3 998.0
18 18.04 штиль 0 30 км 9/6 450 м
[Sc Ac trans]
+27.0 +22.0 74 +35 +38 очень
душно
1011.2 995.8
21 18.04 штиль 0 30 км 8/3 600 м
[Cu hum Ci]
+28.7 +23.7 74 +39 +40 очень
душно
1009.1 993.8 +29.2
12 19.04 штиль 0 30 км 5/0 2000 м
[Ac trans]
+22.5 +21.1 92 +30 +33 очень
душно
1011.4 996.0 +17.3
15 19.04 штиль 0 30 км 10/3 400 м
[Sc Ac trans Ci]
+27.0 +24.3 85 +38 +45 очень
душно
1011.5 996.1
18 19.04 штиль 0 20 км осадки на расстоянии 10/8 450 м
[Cb cap Ac lent]
+28.5 +25.6 84 +42 +43 опасность
перегрева
1009.3 994.0
21 19.04 штиль 0 30 км 9/4 500 м
[Sc Ac trans]
+27.0 +24.3 85 +38 +38 очень
душно
1006.4 991.2 +28.8
12 20.04 штиль 0 6000 м слабый дождь 10/10 240 м
[Sc]
+17.8 +17.3 97 +18 +18 1012.4 997.0 +16.0 20
15 20.04 штиль 0 5000 м слабая морось 10/10 240 м
[Sc]
+18.0 +17.5 97 +18 +18 1013.0 997.8
21 20.04 штиль 0 20 км 10/9 360 м
[Sc As op]
+20.0 +18.8 93 +23 +23 комфорт 1009.6 994.2 +20.4
12 21.04 штиль 0 3000 м дымка {дождь} 10/10 180 м
[Sc]
+19.0 +19.0 100 +21 +21 комфорт 1012.8 997.5 +15.9 20
15 21.04 штиль 0 8000 м дымка 10/9 240 м
[Sc As op]
+20.8 +20.5 98 +25 +26 комфорт 1013.8 998.4
18 21.04 штиль 0 4000 м слабая морось 10/10 240 м
[Sc]
+21.6 +20.9 96 +27 +27 душно 1012.3 996.8 0.3
21 21.04 штиль 0 20 км 10/8 400 м
[Sc As op]
+23.0 +20.9 88 +30 +30 очень
душно
1011.6 996.2 +23.4
12 22.04 штиль 0 30 км 9/3 600 м
[Sc Ac trans]
+22.5 +21.1 92 +30 +31 очень
душно
1014.4 999.0 +16.2
15 22.04 штиль 0 30 км 9/4 600 м
[Cu hum Ci]
+27.2 +22.4 75 +36 +46 очень
душно
1014.0 999.6
18 22.04 штиль 0 30 км 9/8 600 м
[Cu med, cong Ci]
+27.0 +22.2 75 +35 +38 очень
душно
1013.1 997.8
21 22.04 штиль 0 30 км 9/0 2000 м
[Ac trans]
+27.0 +22.9 78 +36 +36 очень
душно
1011.8 996.4 +28.4
12 23.04 штиль 0 30 км 5/0 2000 м
[Ac trans]
+24.0 +21.2 84 +30 +34 очень
душно
1014.4 999.0 +17.5
15 23.04 В 3 30 км 5/0 2000 м
[Ac trans]
+26.8 +20.4 68 +33 +43 очень
душно
1015.0 999.6
18 23.04 штиль 0 30 км 3/0 2000 м
[Ac trans]
+29.0 +21.4 64 +37 +49 очень
душно
1011.8 996.4
21 23.04 штиль 0 30 км ясно +29.0 +22.3 67 +38 +38 очень
душно
1010.6 994.2 +30.4
12 24.04 В 3 30 км ясно +25.7 +21.7 79 +33 +36 очень
душно
1011.8 996.4 +18.0
15 24.04 В 3 30 км 3/3 600 м
[Cu hum]
+29.0 +23.6 73 +40 +49 очень
душно
1012.3 996.8
18 24.04 В 3 30 км 8/8 600 м
[Cu med, cong]
+31.7 +25.0 68 +45 +47 опасность
перегрева
1008.6 993.4
21 24.04 штиль 0 30 км 5/5 600 м
[Cu med, cong]
+30.0 +24.7 73 +43 +43 опасность
перегрева
1007.1 991.8 +32.4

 

Местоположение метеостанции Puerto Suarez (Боливия): широта -18.98 долгота -57.81 высота над уровнем моря 134 м.

В архиве по умолчанию представлена погода в Puerto Suarez за последнюю неделю. Архивные данные за месяц целиком и за предыдущие месяцы, начиная с января 2011 года, Вы можете получить, выбрав интересующий диапазон дат из раскрывающегося списка и нажав кнопку "Ввод!".

Внимание! Время в таблицах - всемирное. Для получения местного времени необходимо прибавить поправку, которая в Puerto Suarez равна -4 ч.

Смотрите также архив погоды в соседних городах и на ближайших метеорологических станциях:

Погода в Robore (Боливия) (219 км)
Погода в San Matias (Боливия) (301 км)
Погода в Caceres (Бразилия) (326 км)
Погода в San Jose De Chiquit (Боливия) (335 км)
Погода в Puerto Casado (Парагвай) (367 км)
Погода в Campo Grande (Бразилия) (369 км)
Погода в Cuiaba (Бразилия) (412 км)
Погода в San Ignacio De Vela (Боливия) (442 км)
Погода в Mariscal Estigar (Парагвай) (445 км)
Погода в Ponta Pora (Бразилия) (452 км)

Пояснения к столбцам:

Ветер - указаны скорость ветра в м/с - средняя за 10 мин, порывы в срок и между сроками (в фигурных скобках) и направление, откуда дует ветер: С - северный, СВ - северо-восточный, В - восточный, ЮВ - юго-восточный, Ю - южный, ЮЗ - юго-западный, З - западный, СЗ - северо-западный.
Видимость - горизонтальная дальность видимости в метрах или километрах. При видимости от 1 до 10 км при отсутствии осадков обычно наблюдается дымка, при ухудшении видимости до 1 км и менее - туман. В сухую погоду видимость может ухудшаться дымом, пылью или мглою.
Явления - указаны атмосферные явления, наблюдавшиеся в срок или в последний час перед сроком; фигурными скобками обозначены явления, наблюдавшиеся между сроками (за 1-3 часа до срока); квадратными скобками обозначены град или гололедные отложения с указанием их диаметра в мм.
Облачность - указаны через наклонную черту общая и нижняя облачность в баллах и высота нижней границы облаков в метрах; квадратными скобками обозначены формы облаков: Ci - перистые, Cs - перисто-слоистые, Cc - перисто-кучевые, Ac - высококучевые, As - высокослоистые, Sc - слоисто-кучевые, Ns - слоисто-дождевые, Cu - кучевые, Cb - кучево-дождевые. Подробнее классификацию облаков см. в Атласе облаков (PDF).
T - Температура воздуха - температура, измеренная на высоте 2 м над землей.
Td - Температура точки росы - температура, при понижении до которой содержащийся в воздухе водяной пар достигнет насыщения.
f - Относительная влажность воздуха - влажноcть воздуха, измеренная на высоте 2 м над землей.
Te - Эффективная температура - температура, которую ощущает одетый по сезону человек в тени. Характеристика душности погоды. При расчете учитывается влияние влажности воздуха и скорости ветра на теплоощущения человека.
Tes - Эффективная температура на солнце - температура, которую ощущает человек, с поправкой на солнечный нагрев. Характеристика знойности погоды. Зависит от высоты солнца над горизонтом, облачности и скорости ветра. Ночью, в пасмурную погоду, а также при ветре 12 м/с и более поправка равна нулю.
P - Атмосферное давление - приведенное к уровню моря атмосферное давление.
Po - Атмосферное давление - измеренное на уровне метеостанции атмосферное давление.
Tmin - Минимальная температура - минимум температуры воздуха на высоте 2 м над землей.
Tmax - Максимальная температура - максимум температуры воздуха на высоте 2 м над землей.
R - Количество осадков - Количество выпавших осадков за период времени, мм. При наведении курсора мыши на число - период времени, за который выпало указанное количество осадков.
R24 - Количество осадков - Количество выпавших осадков за 24 часа, мм.
S - Снежный покров - Высота снежного покрова, см. При наведении курсора мыши на число - состояние снежного покрова и степень покрытия местности в баллах.